Location: ????
(32.1228°N, 34.8377°E)
Time: 00:46:11
(UTC+00:00)

USA 234 - Pass Details

Date: 21 September 2020
Orbit: 1102 x 1106 km, 123.0° (Epoch: 16 October)

Event Time Altitude Azimuth Distance (km) Brightness Sun altitude
Rises 01:34:39 0° 122° (ESE) 3,906 6.7 -24.5°
Reaches altitude 10° 01:37:10 10° 118° (ESE) 2,951 6.1 -24.0°
Maximum altitude 01:43:29 56° 43° (NE) 1,297 3.9 -22.7°
Drops below altitude 10° 01:49:50 10° 327° (NNW) 2,960 5.3 -21.4°
Sets 01:52:22 0° 323° (NW) 3,920 5.9 -20.9°
